Year,Month,Day,Hour,Minute,Value (Times are PST for windspeed in km/hr)
2015,09,14,00,00,5.40
2015,09,14,00,01,11.10
2015,09,14,00,02,8.20
2015,09,14,00,03,7.60
2015,09,14,00,04,9.20
2015,09,14,00,05,5.20
2015,09,14,00,06,5.80
2015,09,14,00,07,14.30
2015,09,14,00,08,4.70
2015,09,14,00,09,2.50
2015,09,14,00,10,8.70
2015,09,14,00,11,6.10
2015,09,14,00,12,4.80
2015,09,14,00,13,2.00
2015,09,14,00,14,4.90
2015,09,14,00,15,6.30
2015,09,14,00,16,6.30
2015,09,14,00,17,4.80
2015,09,14,00,18,7.50
2015,09,14,00,19,11.20
2015,09,14,00,20,8.50
2015,09,14,00,21,8.60
2015,09,14,00,22,8.10
2015,09,14,00,23,7.00
2015,09,14,00,24,8.00
2015,09,14,00,25,7.20
2015,09,14,00,26,7.00
2015,09,14,00,27,8.30
2015,09,14,00,28,8.20
2015,09,14,00,29,9.10
2015,09,14,00,30,9.40
2015,09,14,00,31,9.70
2015,09,14,00,32,7.60
2015,09,14,00,33,3.60
2015,09,14,00,34,9.40
2015,09,14,00,35,6.10
2015,09,14,00,36,2.90
2015,09,14,00,37,8.40
2015,09,14,00,38,5.40
2015,09,14,00,39,6.30
2015,09,14,00,40,10.20
2015,09,14,00,41,9.20
2015,09,14,00,42,4.40
2015,09,14,00,43,8.60
2015,09,14,00,44,11.60
2015,09,14,00,45,10.30
2015,09,14,00,46,6.30
2015,09,14,00,47,3.90
2015,09,14,00,48,3.30
2015,09,14,00,49,3.90
2015,09,14,00,50,4.80
2015,09,14,00,51,5.60
2015,09,14,00,52,2.60
2015,09,14,00,53,1.60
2015,09,14,00,54,3.50
2015,09,14,00,55,1.90
2015,09,14,00,56,1.30
2015,09,14,00,57,0.40
2015,09,14,00,58,0.00
2015,09,14,00,59,0.00
2015,09,14,01,00,2.60
2015,09,14,01,01,4.20
2015,09,14,01,02,3.70
2015,09,14,01,03,4.90
2015,09,14,01,04,7.60
2015,09,14,01,05,5.20
2015,09,14,01,06,6.00
2015,09,14,01,07,3.40
2015,09,14,01,08,7.90
2015,09,14,01,09,5.90
2015,09,14,01,10,2.30
2015,09,14,01,11,3.90
2015,09,14,01,12,1.70
2015,09,14,01,13,6.30
2015,09,14,01,14,4.60
2015,09,14,01,15,3.00
2015,09,14,01,16,5.50
2015,09,14,01,17,3.50
2015,09,14,01,18,3.80
2015,09,14,01,19,3.00
2015,09,14,01,20,2.20
2015,09,14,01,21,1.10
2015,09,14,01,22,1.30
2015,09,14,01,23,0.50
2015,09,14,01,24,2.50
2015,09,14,01,25,2.50
2015,09,14,01,26,3.30
2015,09,14,01,27,2.90
2015,09,14,01,28,1.80
2015,09,14,01,29,4.30
2015,09,14,01,30,3.10
2015,09,14,01,31,0.50
2015,09,14,01,32,3.30
2015,09,14,01,33,2.60
2015,09,14,01,34,1.70
2015,09,14,01,35,1.30
2015,09,14,01,36,0.70
2015,09,14,01,37,0.90
2015,09,14,01,38,2.10
2015,09,14,01,39,0.20
2015,09,14,01,40,1.60
2015,09,14,01,41,0.70
2015,09,14,01,42,1.10
2015,09,14,01,43,0.20
2015,09,14,01,44,0.20
2015,09,14,01,45,0.00
2015,09,14,01,46,0.70
2015,09,14,01,47,1.10
2015,09,14,01,48,2.10
2015,09,14,01,49,0.80
2015,09,14,01,50,1.10
2015,09,14,01,51,1.60
2015,09,14,01,52,0.40
2015,09,14,01,53,0.80
2015,09,14,01,54,0.80
2015,09,14,01,55,1.40
2015,09,14,01,56,1.50
2015,09,14,01,57,2.10
2015,09,14,01,58,1.70
2015,09,14,01,59,1.10
2015,09,14,02,00,0.80
2015,09,14,02,01,0.70
2015,09,14,02,02,2.70
2015,09,14,02,03,3.60
2015,09,14,02,04,2.00
2015,09,14,02,05,3.40
2015,09,14,02,06,1.30
2015,09,14,02,07,1.10
2015,09,14,02,08,0.60
2015,09,14,02,09,0.10
2015,09,14,02,10,0.60
2015,09,14,02,11,0.80
2015,09,14,02,12,2.60
2015,09,14,02,13,1.90
2015,09,14,02,14,0.70
2015,09,14,02,15,1.30
2015,09,14,02,16,2.70
2015,09,14,02,17,0.60
2015,09,14,02,18,2.00
2015,09,14,02,19,2.30
2015,09,14,02,20,1.30
2015,09,14,02,21,3.30
2015,09,14,02,22,3.10
2015,09,14,02,23,3.90
2015,09,14,02,24,2.90
2015,09,14,02,25,2.60
2015,09,14,02,26,1.80
2015,09,14,02,27,2.50
2015,09,14,02,28,1.30
2015,09,14,02,29,2.70
2015,09,14,02,30,2.60
2015,09,14,02,31,1.80
2015,09,14,02,32,2.20
2015,09,14,02,33,1.60
2015,09,14,02,34,2.10
2015,09,14,02,35,1.60
2015,09,14,02,36,1.60
2015,09,14,02,37,0.70
2015,09,14,02,38,1.20
2015,09,14,02,39,1.60
2015,09,14,02,40,1.10
2015,09,14,02,41,1.90
2015,09,14,02,42,3.40
2015,09,14,02,43,1.30
2015,09,14,02,44,2.50
2015,09,14,02,45,3.10
2015,09,14,02,46,2.00
2015,09,14,02,47,1.70
2015,09,14,02,48,1.70
2015,09,14,02,49,3.50
2015,09,14,02,50,2.80
2015,09,14,02,51,1.90
2015,09,14,02,52,1.90
2015,09,14,02,53,2.40
2015,09,14,02,54,1.70
2015,09,14,02,55,1.40
2015,09,14,02,56,1.60
2015,09,14,02,57,0.80
2015,09,14,02,58,1.30
2015,09,14,02,59,2.00
2015,09,14,03,00,2.10
2015,09,14,03,01,1.90
2015,09,14,03,02,2.40
2015,09,14,03,03,4.00
2015,09,14,03,04,4.60
2015,09,14,03,05,2.30
2015,09,14,03,06,2.60
2015,09,14,03,07,3.80
2015,09,14,03,08,2.00
2015,09,14,03,09,2.40
2015,09,14,03,10,3.20
2015,09,14,03,11,5.10
2015,09,14,03,12,2.90
2015,09,14,03,13,3.30
2015,09,14,03,14,4.20
2015,09,14,03,15,4.30
2015,09,14,03,16,4.90
2015,09,14,03,17,6.40
2015,09,14,03,18,4.50
2015,09,14,03,19,5.30
2015,09,14,03,20,8.30
2015,09,14,03,21,6.10
2015,09,14,03,22,4.50
2015,09,14,03,23,5.30
2015,09,14,03,24,4.50
2015,09,14,03,25,2.40
2015,09,14,03,26,2.10
2015,09,14,03,27,4.50
2015,09,14,03,28,4.30
2015,09,14,03,29,3.00
2015,09,14,03,30,2.80
2015,09,14,03,31,4.00
2015,09,14,03,32,4.50
2015,09,14,03,33,5.60
2015,09,14,03,34,6.40
2015,09,14,03,35,3.50
2015,09,14,03,36,2.80
2015,09,14,03,37,1.10
2015,09,14,03,38,2.10
2015,09,14,03,39,3.30
2015,09,14,03,40,1.80
2015,09,14,03,41,2.70
2015,09,14,03,42,3.20
2015,09,14,03,43,3.90
2015,09,14,03,44,2.70
2015,09,14,03,45,2.10
2015,09,14,03,46,2.00
2015,09,14,03,47,2.60
2015,09,14,03,48,0.60
2015,09,14,03,49,1.60
2015,09,14,03,50,1.20
2015,09,14,03,51,4.40
2015,09,14,03,52,2.30
2015,09,14,03,53,5.10
2015,09,14,03,54,5.10
2015,09,14,03,55,2.80
2015,09,14,03,56,3.90
2015,09,14,03,57,2.40
2015,09,14,03,58,0.40
2015,09,14,03,59,0.20
2015,09,14,04,00,0.80
2015,09,14,04,01,1.80
2015,09,14,04,02,1.10
2015,09,14,04,03,1.00
2015,09,14,04,04,1.50
2015,09,14,04,05,1.00
2015,09,14,04,06,0.50
2015,09,14,04,07,2.60
2015,09,14,04,08,1.20
2015,09,14,04,09,2.40
2015,09,14,04,10,1.60
2015,09,14,04,11,0.40
2015,09,14,04,12,0.40
2015,09,14,04,13,2.60
2015,09,14,04,14,1.80
2015,09,14,04,15,1.40
2015,09,14,04,16,2.60
2015,09,14,04,17,2.70
2015,09,14,04,18,2.00
2015,09,14,04,19,0.50
2015,09,14,04,20,1.50
2015,09,14,04,21,4.70
2015,09,14,04,22,3.20
2015,09,14,04,23,2.90
2015,09,14,04,24,2.60
2015,09,14,04,25,2.20
2015,09,14,04,26,1.90
2015,09,14,04,27,1.70
2015,09,14,04,28,2.90
2015,09,14,04,29,1.70
2015,09,14,04,30,1.30
2015,09,14,04,31,3.20
2015,09,14,04,32,2.30
2015,09,14,04,33,1.80
2015,09,14,04,34,1.60
2015,09,14,04,35,2.10
2015,09,14,04,36,1.40
2015,09,14,04,37,0.70
2015,09,14,04,38,2.40
2015,09,14,04,39,1.60
2015,09,14,04,40,2.70
2015,09,14,04,41,3.50
2015,09,14,04,42,2.70
2015,09,14,04,43,2.70
2015,09,14,04,44,1.50
2015,09,14,04,45,2.50
2015,09,14,04,46,1.60
2015,09,14,04,47,2.90
2015,09,14,04,48,1.30
2015,09,14,04,49,2.50
2015,09,14,04,50,0.50
2015,09,14,04,51,1.10
2015,09,14,04,52,1.40
2015,09,14,04,53,1.60
2015,09,14,04,54,0.70
2015,09,14,04,55,1.60
2015,09,14,04,56,3.80
2015,09,14,04,57,1.90
2015,09,14,04,58,2.10
2015,09,14,04,59,4.80
2015,09,14,05,00,1.70
2015,09,14,05,01,1.60
2015,09,14,05,02,0.70
2015,09,14,05,03,1.80
2015,09,14,05,04,1.30
2015,09,14,05,05,2.10
2015,09,14,05,06,2.30
2015,09,14,05,07,3.00
2015,09,14,05,08,1.70
2015,09,14,05,09,2.40
2015,09,14,05,10,3.30
2015,09,14,05,11,1.50
2015,09,14,05,12,2.30
2015,09,14,05,13,0.50
2015,09,14,05,14,3.00
2015,09,14,05,15,1.90
2015,09,14,05,16,1.00
2015,09,14,05,17,1.50
2015,09,14,05,18,2.30
2015,09,14,05,19,3.30
2015,09,14,05,20,2.60
2015,09,14,05,21,1.90
2015,09,14,05,22,2.60
2015,09,14,05,23,2.80
2015,09,14,05,24,3.30
2015,09,14,05,25,2.00
2015,09,14,05,26,1.00
2015,09,14,05,27,1.60
2015,09,14,05,28,1.70
2015,09,14,05,29,1.50
2015,09,14,05,30,1.30
2015,09,14,05,31,1.70
2015,09,14,05,32,1.00
2015,09,14,05,33,1.10
2015,09,14,05,34,1.60
2015,09,14,05,35,1.90
2015,09,14,05,36,2.90
2015,09,14,05,37,1.60
2015,09,14,05,38,2.20
2015,09,14,05,39,3.00
2015,09,14,05,40,3.10
2015,09,14,05,41,2.30
2015,09,14,05,42,2.90
2015,09,14,05,43,2.60
2015,09,14,05,44,2.60
2015,09,14,05,45,2.60
2015,09,14,05,46,2.10
2015,09,14,05,47,1.40
2015,09,14,05,48,1.30
2015,09,14,05,49,1.20
2015,09,14,05,50,2.00
2015,09,14,05,51,2.70
2015,09,14,05,52,2.00
2015,09,14,05,53,2.90
2015,09,14,05,54,2.10
2015,09,14,05,55,0.80
2015,09,14,05,56,2.40
2015,09,14,05,57,0.80
2015,09,14,05,58,1.80
2015,09,14,05,59,1.10
2015,09,14,06,00,1.00
2015,09,14,06,01,1.10
2015,09,14,06,02,1.60
2015,09,14,06,03,2.10
2015,09,14,06,04,2.90
2015,09,14,06,05,1.30
2015,09,14,06,06,2.20
2015,09,14,06,07,0.50
2015,09,14,06,08,1.20
2015,09,14,06,09,1.40
2015,09,14,06,10,4.00
2015,09,14,06,11,3.00
2015,09,14,06,12,1.10
2015,09,14,06,13,2.30
2015,09,14,06,14,2.10
2015,09,14,06,15,1.60
2015,09,14,06,16,2.30
2015,09,14,06,17,2.40
2015,09,14,06,18,2.10
2015,09,14,06,19,1.90
2015,09,14,06,20,2.00
2015,09,14,06,21,1.70
2015,09,14,06,22,1.50
2015,09,14,06,23,1.00
2015,09,14,06,24,1.90
2015,09,14,06,25,2.70
2015,09,14,06,26,2.10
2015,09,14,06,27,0.80
2015,09,14,06,28,2.80
2015,09,14,06,29,1.30
2015,09,14,06,30,2.90
2015,09,14,06,31,2.00
2015,09,14,06,32,1.80
2015,09,14,06,33,2.60
2015,09,14,06,34,1.80
2015,09,14,06,35,3.00
2015,09,14,06,36,0.80
2015,09,14,06,37,2.00
2015,09,14,06,38,1.20
2015,09,14,06,39,3.10
2015,09,14,06,40,3.40
2015,09,14,06,41,0.80
2015,09,14,06,42,1.70
2015,09,14,06,43,1.60
2015,09,14,06,44,1.70
2015,09,14,06,45,1.20
2015,09,14,06,46,1.50
2015,09,14,06,47,1.60
2015,09,14,06,48,2.30
2015,09,14,06,49,0.60
2015,09,14,06,50,2.80
2015,09,14,06,51,2.60
2015,09,14,06,52,1.00
2015,09,14,06,53,2.70
2015,09,14,06,54,0.40
2015,09,14,06,55,4.10
2015,09,14,06,56,3.50
2015,09,14,06,57,1.90
2015,09,14,06,58,2.10
2015,09,14,06,59,1.70
2015,09,14,07,00,2.70
2015,09,14,07,01,0.70
2015,09,14,07,02,2.10
2015,09,14,07,03,2.30
2015,09,14,07,04,4.10
2015,09,14,07,05,2.90
2015,09,14,07,06,1.70
2015,09,14,07,07,0.50
2015,09,14,07,08,2.70
2015,09,14,07,09,3.30
2015,09,14,07,10,1.40
2015,09,14,07,11,4.20
2015,09,14,07,12,3.00
2015,09,14,07,13,3.30
2015,09,14,07,14,1.20
2015,09,14,07,15,0.90
2015,09,14,07,16,1.30
2015,09,14,07,17,2.40
2015,09,14,07,18,2.70
2015,09,14,07,19,1.10
2015,09,14,07,20,1.30
2015,09,14,07,21,2.00
2015,09,14,07,22,1.30
2015,09,14,07,23,2.50
2015,09,14,07,24,2.30
2015,09,14,07,25,2.60
2015,09,14,07,26,4.60
2015,09,14,07,27,3.10
2015,09,14,07,28,1.40
2015,09,14,07,29,1.80
2015,09,14,07,30,2.20
2015,09,14,07,31,1.80
2015,09,14,07,32,1.70
2015,09,14,07,33,2.70
2015,09,14,07,34,1.40
2015,09,14,07,35,1.30
2015,09,14,07,36,1.90
2015,09,14,07,37,1.90
2015,09,14,07,38,2.30
2015,09,14,07,39,0.80
2015,09,14,07,40,4.00
2015,09,14,07,41,4.30
2015,09,14,07,42,2.30
2015,09,14,07,43,4.20
2015,09,14,07,44,4.80
2015,09,14,07,45,5.80
2015,09,14,07,46,5.10
2015,09,14,07,47,1.50
2015,09,14,07,48,2.70
2015,09,14,07,49,3.70
2015,09,14,07,50,6.40
2015,09,14,07,51,4.80
2015,09,14,07,52,2.60
2015,09,14,07,53,2.40
2015,09,14,07,54,5.30
2015,09,14,07,55,8.60
2015,09,14,07,56,6.80
2015,09,14,07,57,5.50
2015,09,14,07,58,3.50
2015,09,14,07,59,10.40
2015,09,14,08,00,8.20
2015,09,14,08,01,6.20
2015,09,14,08,02,4.90
2015,09,14,08,03,1.70
2015,09,14,08,04,4.60
2015,09,14,08,05,3.10
2015,09,14,08,06,6.10
2015,09,14,08,07,3.10
2015,09,14,08,08,1.60
2015,09,14,08,09,2.00
2015,09,14,08,10,3.90
2015,09,14,08,11,5.10
2015,09,14,08,12,2.90
2015,09,14,08,13,4.80
2015,09,14,08,14,6.00
2015,09,14,08,15,1.70
2015,09,14,08,16,3.80
2015,09,14,08,17,3.70
2015,09,14,08,18,2.10
2015,09,14,08,19,3.40
2015,09,14,08,20,2.60
2015,09,14,08,21,2.10
2015,09,14,08,22,2.00
2015,09,14,08,23,3.70
2015,09,14,08,24,3.80
2015,09,14,08,25,3.90
2015,09,14,08,26,2.60
2015,09,14,08,27,4.60
2015,09,14,08,28,2.30
2015,09,14,08,29,2.10
2015,09,14,08,30,2.30
2015,09,14,08,31,1.70
2015,09,14,08,32,2.40
2015,09,14,08,33,2.10
2015,09,14,08,34,5.30
2015,09,14,08,35,5.50
2015,09,14,08,36,3.00
2015,09,14,08,37,2.90
2015,09,14,08,38,1.40
2015,09,14,08,39,2.10
2015,09,14,08,40,2.50
2015,09,14,08,41,3.40
2015,09,14,08,42,4.20
2015,09,14,08,43,2.90
2015,09,14,08,44,1.70
2015,09,14,08,45,2.90
2015,09,14,08,46,1.70
2015,09,14,08,47,2.00
2015,09,14,08,48,2.50
2015,09,14,08,49,1.90
2015,09,14,08,50,1.10
2015,09,14,08,51,1.10
2015,09,14,08,52,3.60
2015,09,14,08,53,1.50
2015,09,14,08,54,3.20
2015,09,14,08,55,3.40
2015,09,14,08,56,2.70
2015,09,14,08,57,1.30
2015,09,14,08,58,0.60
2015,09,14,08,59,1.20
2015,09,14,09,00,2.80
2015,09,14,09,01,3.40
2015,09,14,09,02,3.90
2015,09,14,09,03,1.90
2015,09,14,09,04,1.80
2015,09,14,09,05,1.10
2015,09,14,09,06,3.30
2015,09,14,09,07,2.10
2015,09,14,09,08,2.80
2015,09,14,09,09,2.70
2015,09,14,09,10,4.00
2015,09,14,09,11,4.00
2015,09,14,09,12,1.20
2015,09,14,09,13,0.80
2015,09,14,09,14,1.30
2015,09,14,09,15,1.80
2015,09,14,09,16,2.00
2015,09,14,09,17,3.40
2015,09,14,09,18,4.10
2015,09,14,09,19,1.40
2015,09,14,09,20,1.70
2015,09,14,09,21,4.00
2015,09,14,09,22,1.40
2015,09,14,09,23,2.40
2015,09,14,09,24,5.30
2015,09,14,09,25,8.90
2015,09,14,09,26,5.00
2015,09,14,09,27,3.90
2015,09,14,09,28,2.70
2015,09,14,09,29,3.50
2015,09,14,09,30,3.80
2015,09,14,09,31,4.50
2015,09,14,09,32,3.00
2015,09,14,09,33,6.90
2015,09,14,09,34,6.00
2015,09,14,09,35,4.00
2015,09,14,09,36,3.50
2015,09,14,09,37,4.80
2015,09,14,09,38,4.30
2015,09,14,09,39,5.30
2015,09,14,09,40,2.80
2015,09,14,09,41,2.70
2015,09,14,09,42,1.70
2015,09,14,09,43,3.00
2015,09,14,09,44,7.90
2015,09,14,09,45,8.10
2015,09,14,09,46,12.40
2015,09,14,09,47,6.10
2015,09,14,09,48,6.70
2015,09,14,09,49,4.10
2015,09,14,09,50,4.00
2015,09,14,09,51,1.40
2015,09,14,09,52,1.60
2015,09,14,09,53,4.10
2015,09,14,09,54,3.70
2015,09,14,09,55,3.10
2015,09,14,09,56,5.40
2015,09,14,09,57,3.00
2015,09,14,09,58,2.40
2015,09,14,09,59,2.90
2015,09,14,10,00,8.30
2015,09,14,10,01,10.30
2015,09,14,10,02,5.80
2015,09,14,10,03,5.80
2015,09,14,10,04,2.30
2015,09,14,10,05,2.00
2015,09,14,10,06,2.00
2015,09,14,10,07,3.90
2015,09,14,10,08,0.30
2015,09,14,10,09,5.80
2015,09,14,10,10,8.30
2015,09,14,10,11,10.90
2015,09,14,10,12,8.30
2015,09,14,10,13,12.90
2015,09,14,10,14,4.20
2015,09,14,10,15,2.40
2015,09,14,10,16,1.60
2015,09,14,10,17,6.40
2015,09,14,10,18,10.10
2015,09,14,10,19,8.20
2015,09,14,10,20,8.20
2015,09,14,10,21,5.50
2015,09,14,10,22,6.80
2015,09,14,10,23,10.00
2015,09,14,10,24,6.90
2015,09,14,10,25,9.60
2015,09,14,10,26,11.40
2015,09,14,10,27,8.20
2015,09,14,10,28,6.70
2015,09,14,10,29,8.90
2015,09,14,10,30,2.20
2015,09,14,10,31,5.80
2015,09,14,10,32,2.40
2015,09,14,10,33,1.70
2015,09,14,10,34,6.20
2015,09,14,10,35,4.20
2015,09,14,10,36,7.30
2015,09,14,10,37,5.10
2015,09,14,10,38,1.70
2015,09,14,10,39,4.20
2015,09,14,10,40,1.70
2015,09,14,10,41,2.00
2015,09,14,10,42,1.90
2015,09,14,10,43,1.60
2015,09,14,10,44,2.30
2015,09,14,10,45,1.60
2015,09,14,10,46,2.30
2015,09,14,10,47,4.30
2015,09,14,10,48,3.50
2015,09,14,10,49,4.30
2015,09,14,10,50,4.20
2015,09,14,10,51,3.30
2015,09,14,10,52,3.20
2015,09,14,10,53,2.00
2015,09,14,10,54,4.00
2015,09,14,10,55,4.20
2015,09,14,10,56,4.10
2015,09,14,10,57,4.20
2015,09,14,10,58,3.60
2015,09,14,10,59,3.20
2015,09,14,11,00,3.90
2015,09,14,11,01,3.50
2015,09,14,11,02,6.00
2015,09,14,11,03,3.00
2015,09,14,11,04,2.60
2015,09,14,11,05,4.00
2015,09,14,11,06,4.50
2015,09,14,11,07,4.90
2015,09,14,11,08,3.50
2015,09,14,11,09,1.00
2015,09,14,11,10,2.80
2015,09,14,11,11,9.00
2015,09,14,11,12,3.10
2015,09,14,11,13,3.40
2015,09,14,11,14,2.70
2015,09,14,11,15,1.40
2015,09,14,11,16,3.80
2015,09,14,11,17,3.00
2015,09,14,11,18,3.10
2015,09,14,11,19,1.10
2015,09,14,11,20,2.10
2015,09,14,11,21,0.70
2015,09,14,11,22,2.70
2015,09,14,11,23,3.20
2015,09,14,11,24,2.70
2015,09,14,11,25,2.10
2015,09,14,11,26,2.90
2015,09,14,11,27,0.70
2015,09,14,11,28,0.60
2015,09,14,11,29,1.50
2015,09,14,11,30,2.40
2015,09,14,11,31,4.50
2015,09,14,11,32,3.10
2015,09,14,11,33,6.60
2015,09,14,11,34,5.40
2015,09,14,11,35,3.00
2015,09,14,11,36,4.20
2015,09,14,11,37,7.10
2015,09,14,11,38,4.00
2015,09,14,11,39,3.00
2015,09,14,11,40,1.90
2015,09,14,11,41,5.80
2015,09,14,11,42,5.20
2015,09,14,11,43,4.20
2015,09,14,11,44,5.00
2015,09,14,11,45,5.10
2015,09,14,11,46,2.10
2015,09,14,11,47,2.60
2015,09,14,11,48,1.80
2015,09,14,11,49,5.20
2015,09,14,11,50,3.60
2015,09,14,11,51,2.90
2015,09,14,11,52,3.10
2015,09,14,11,53,6.40
2015,09,14,11,54,12.20
2015,09,14,11,55,7.00
2015,09,14,11,56,12.00
2015,09,14,11,57,11.50
2015,09,14,11,58,7.50
2015,09,14,11,59,2.90
2015,09,14,12,00,1.80
2015,09,14,12,01,3.80
2015,09,14,12,02,2.20
2015,09,14,12,03,4.90
2015,09,14,12,04,4.20
2015,09,14,12,05,6.10
2015,09,14,12,06,6.60
2015,09,14,12,07,8.50
2015,09,14,12,08,5.10
2015,09,14,12,09,4.30
2015,09,14,12,10,2.30
2015,09,14,12,11,2.90
2015,09,14,12,12,1.50
2015,09,14,12,13,3.60
2015,09,14,12,14,4.90
2015,09,14,12,15,4.70
2015,09,14,12,16,3.20
2015,09,14,12,17,1.90
2015,09,14,12,18,1.50
2015,09,14,12,19,2.80
2015,09,14,12,20,2.30
2015,09,14,12,21,4.70
2015,09,14,12,22,7.60
2015,09,14,12,23,10.80
2015,09,14,12,24,9.20
2015,09,14,12,25,7.80
2015,09,14,12,26,6.30
2015,09,14,12,27,3.50
2015,09,14,12,28,2.20
2015,09,14,12,29,4.20
2015,09,14,12,30,5.20
2015,09,14,12,31,4.70
2015,09,14,12,32,6.40
2015,09,14,12,33,3.60
2015,09,14,12,34,1.70
2015,09,14,12,35,0.90
2015,09,14,12,36,3.50
2015,09,14,12,37,3.50
2015,09,14,12,38,3.20
2015,09,14,12,39,4.60
2015,09,14,12,40,4.30
2015,09,14,12,41,4.20
2015,09,14,12,42,5.20
2015,09,14,12,43,1.60
2015,09,14,12,44,1.70
2015,09,14,12,45,3.60
2015,09,14,12,46,4.70
2015,09,14,12,47,5.50
2015,09,14,12,48,5.30
2015,09,14,12,49,3.40
2015,09,14,12,50,4.00
2015,09,14,12,51,8.60
2015,09,14,12,52,5.10
2015,09,14,12,53,4.60
2015,09,14,12,54,5.40
2015,09,14,12,55,4.40
2015,09,14,12,56,3.40
2015,09,14,12,57,5.40
2015,09,14,12,58,3.70
2015,09,14,12,59,3.40
2015,09,14,13,00,2.00
2015,09,14,13,01,4.80
2015,09,14,13,02,5.50
2015,09,14,13,03,6.80
2015,09,14,13,04,3.10
2015,09,14,13,05,2.70
2015,09,14,13,06,4.80
2015,09,14,13,07,4.40
2015,09,14,13,08,4.70
2015,09,14,13,09,3.60
2015,09,14,13,10,4.90
2015,09,14,13,11,3.60
2015,09,14,13,12,4.20
2015,09,14,13,13,3.10
2015,09,14,13,14,3.30
2015,09,14,13,15,3.00
2015,09,14,13,16,4.30
2015,09,14,13,17,5.70
2015,09,14,13,18,10.30
2015,09,14,13,19,9.10
2015,09,14,13,20,5.60
2015,09,14,13,21,5.50
2015,09,14,13,22,4.60
2015,09,14,13,23,3.30
2015,09,14,13,24,3.90
2015,09,14,13,25,3.90
2015,09,14,13,26,3.40
2015,09,14,13,27,1.60
2015,09,14,13,28,1.50
2015,09,14,13,29,3.30
2015,09,14,13,30,4.00
2015,09,14,13,31,3.80
2015,09,14,13,32,3.20
2015,09,14,13,33,5.00
2015,09,14,13,34,4.20
2015,09,14,13,35,3.00
2015,09,14,13,36,3.60
2015,09,14,13,37,3.20
2015,09,14,13,38,2.10
2015,09,14,13,39,6.80
2015,09,14,13,40,6.70
2015,09,14,13,41,5.80
2015,09,14,13,42,4.70
2015,09,14,13,43,5.10
2015,09,14,13,44,3.00
2015,09,14,13,45,4.40
2015,09,14,13,46,5.30
2015,09,14,13,47,3.70
2015,09,14,13,48,3.70
2015,09,14,13,49,4.30
2015,09,14,13,50,3.20
2015,09,14,13,51,4.00
2015,09,14,13,52,5.10
2015,09,14,13,53,5.00
2015,09,14,13,54,5.00
2015,09,14,13,55,5.30
2015,09,14,13,56,4.00
2015,09,14,13,57,3.10
2015,09,14,13,58,2.40
2015,09,14,13,59,4.20
2015,09,14,14,00,3.80
2015,09,14,14,01,4.30
2015,09,14,14,02,2.70
2015,09,14,14,03,4.10
2015,09,14,14,04,4.90
2015,09,14,14,05,6.80
2015,09,14,14,06,4.90
2015,09,14,14,07,4.10
2015,09,14,14,08,2.10
2015,09,14,14,09,2.60
2015,09,14,14,10,4.30
2015,09,14,14,11,6.80
2015,09,14,14,12,6.60
2015,09,14,14,13,4.20
2015,09,14,14,14,3.90
2015,09,14,14,15,4.80
2015,09,14,14,16,2.70
2015,09,14,14,17,2.70
2015,09,14,14,18,3.70
2015,09,14,14,19,2.10
2015,09,14,14,20,1.90
2015,09,14,14,21,2.60
2015,09,14,14,22,2.30
2015,09,14,14,23,2.30
2015,09,14,14,24,1.60
2015,09,14,14,25,3.90
2015,09,14,14,26,4.10
2015,09,14,14,27,1.90
2015,09,14,14,28,0.80
2015,09,14,14,29,2.30
2015,09,14,14,30,9.10
2015,09,14,14,31,8.10
2015,09,14,14,32,6.30
2015,09,14,14,33,4.40
2015,09,14,14,34,5.10
2015,09,14,14,35,5.40
2015,09,14,14,36,3.80
2015,09,14,14,37,3.60
2015,09,14,14,38,5.40
2015,09,14,14,39,8.30
2015,09,14,14,40,2.90
2015,09,14,14,41,4.00
2015,09,14,14,42,3.20
2015,09,14,14,43,1.60
2015,09,14,14,44,4.20
2015,09,14,14,45,8.20
2015,09,14,14,46,3.00
2015,09,14,14,47,7.50
2015,09,14,14,48,7.20
2015,09,14,14,49,7.00
2015,09,14,14,50,7.60
2015,09,14,14,51,6.80
2015,09,14,14,52,4.20
2015,09,14,14,53,3.50
2015,09,14,14,54,3.50
2015,09,14,14,55,4.60
2015,09,14,14,56,5.70
2015,09,14,14,57,5.40
2015,09,14,14,58,4.20
2015,09,14,14,59,5.90
2015,09,14,15,00,4.50
2015,09,14,15,01,3.90
2015,09,14,15,02,8.80
2015,09,14,15,03,5.80
2015,09,14,15,04,7.30
2015,09,14,15,05,3.30
2015,09,14,15,06,4.80
2015,09,14,15,07,2.30
2015,09,14,15,08,3.00
2015,09,14,15,09,6.00
2015,09,14,15,10,6.30
2015,09,14,15,11,5.70
2015,09,14,15,12,4.80
2015,09,14,15,13,4.00
2015,09,14,15,14,1.80
2015,09,14,15,15,5.10
2015,09,14,15,16,2.60
2015,09,14,15,17,2.50
2015,09,14,15,18,1.30
2015,09,14,15,19,2.40
2015,09,14,15,20,2.10
2015,09,14,15,21,1.50
2015,09,14,15,22,4.30
2015,09,14,15,23,2.00
2015,09,14,15,24,3.20
2015,09,14,15,25,4.40
2015,09,14,15,26,0.80
2015,09,14,15,27,2.40
2015,09,14,15,28,1.00
2015,09,14,15,29,3.70
2015,09,14,15,30,2.70
2015,09,14,15,31,5.00
2015,09,14,15,32,3.20
2015,09,14,15,33,2.20
2015,09,14,15,34,4.10
2015,09,14,15,35,5.20
2015,09,14,15,36,7.30
2015,09,14,15,37,4.00
2015,09,14,15,38,3.50
2015,09,14,15,39,4.50
2015,09,14,15,40,4.30
2015,09,14,15,41,8.10
2015,09,14,15,42,4.80
2015,09,14,15,43,3.00
2015,09,14,15,44,2.70
2015,09,14,15,45,3.30
2015,09,14,15,46,2.40
2015,09,14,15,47,2.30
2015,09,14,15,48,3.50
2015,09,14,15,49,6.30
2015,09,14,15,50,6.00
2015,09,14,15,51,6.10
2015,09,14,15,52,2.80
2015,09,14,15,53,4.20
2015,09,14,15,54,4.20
2015,09,14,15,55,6.40
2015,09,14,15,56,5.80
2015,09,14,15,57,7.00
2015,09,14,15,58,6.10
2015,09,14,15,59,4.20
2015,09,14,16,00,6.10
2015,09,14,16,01,2.30
2015,09,14,16,02,5.20
2015,09,14,16,03,6.30
2015,09,14,16,04,6.60
2015,09,14,16,05,4.20
2015,09,14,16,06,5.00
2015,09,14,16,07,2.10
2015,09,14,16,08,6.90
2015,09,14,16,09,7.60
2015,09,14,16,10,6.30
2015,09,14,16,11,5.20
2015,09,14,16,12,2.70
2015,09,14,16,13,4.80
2015,09,14,16,14,6.40
2015,09,14,16,15,6.60
2015,09,14,16,16,6.80
2015,09,14,16,17,3.70
2015,09,14,16,18,3.90
2015,09,14,16,19,3.40
2015,09,14,16,20,1.70
2015,09,14,16,21,2.90
2015,09,14,16,22,2.40
2015,09,14,16,23,3.40
2015,09,14,16,24,5.80
2015,09,14,16,25,5.30
2015,09,14,16,26,3.20
2015,09,14,16,27,6.70
2015,09,14,16,28,6.20
2015,09,14,16,29,7.30
2015,09,14,16,30,5.50
2015,09,14,16,31,3.20
2015,09,14,16,32,1.30
2015,09,14,16,33,3.00
2015,09,14,16,34,3.20
2015,09,14,16,35,3.40
2015,09,14,16,36,3.40
2015,09,14,16,37,3.60
2015,09,14,16,38,3.50
2015,09,14,16,39,3.10
2015,09,14,16,40,2.00
2015,09,14,16,41,1.30
2015,09,14,16,42,0.70
2015,09,14,16,43,0.80
2015,09,14,16,44,3.10
2015,09,14,16,45,4.80
2015,09,14,16,46,3.20
2015,09,14,16,47,6.60
2015,09,14,16,48,7.20
2015,09,14,16,49,3.70
2015,09,14,16,50,2.50
2015,09,14,16,51,2.10
2015,09,14,16,52,3.10
2015,09,14,16,53,2.70
2015,09,14,16,54,4.30
2015,09,14,16,55,2.40
2015,09,14,16,56,2.90
2015,09,14,16,57,4.20
2015,09,14,16,58,3.10
2015,09,14,16,59,3.50
2015,09,14,17,00,1.70
2015,09,14,17,01,0.50
2015,09,14,17,02,0.80
2015,09,14,17,03,0.90
2015,09,14,17,04,1.20
2015,09,14,17,05,2.40
2015,09,14,17,06,1.70
2015,09,14,17,07,1.70
2015,09,14,17,08,0.80
2015,09,14,17,09,1.60
2015,09,14,17,10,1.70
2015,09,14,17,11,1.50
2015,09,14,17,12,1.10
2015,09,14,17,13,0.80
2015,09,14,17,14,1.80
2015,09,14,17,15,3.10
2015,09,14,17,16,2.80
2015,09,14,17,17,0.40
2015,09,14,17,18,1.40
2015,09,14,17,19,0.80
2015,09,14,17,20,0.90
2015,09,14,17,21,1.40
2015,09,14,17,22,1.70
2015,09,14,17,23,1.70
2015,09,14,17,24,2.00
2015,09,14,17,25,1.30
2015,09,14,17,26,2.50
2015,09,14,17,27,1.50
2015,09,14,17,28,0.50
2015,09,14,17,29,1.70
2015,09,14,17,30,1.10
2015,09,14,17,31,2.00
2015,09,14,17,32,1.40
2015,09,14,17,33,3.00
2015,09,14,17,34,3.70
2015,09,14,17,35,2.20
2015,09,14,17,36,2.70
2015,09,14,17,37,2.00
2015,09,14,17,38,4.60
2015,09,14,17,39,8.80
2015,09,14,17,40,4.30
2015,09,14,17,41,5.70
2015,09,14,17,42,6.70
2015,09,14,17,43,4.70
2015,09,14,17,44,7.30
2015,09,14,17,45,4.50
2015,09,14,17,46,5.40
2015,09,14,17,47,9.20
2015,09,14,17,48,7.30
2015,09,14,17,49,5.80
2015,09,14,17,50,8.70
2015,09,14,17,51,5.40
2015,09,14,17,52,3.70
2015,09,14,17,53,3.60
2015,09,14,17,54,4.60
2015,09,14,17,55,6.70
2015,09,14,17,56,8.60
2015,09,14,17,57,3.60
2015,09,14,17,58,2.80
2015,09,14,17,59,3.10
2015,09,14,18,00,4.50
2015,09,14,18,01,5.80
2015,09,14,18,02,5.70
2015,09,14,18,03,5.10
2015,09,14,18,04,2.00
2015,09,14,18,05,4.20